Dauntless Aviation
Airports Europe Germany
EDSW

Altdorf-Wallburg

Altdorf-Wallburg, GERMANY

Airport Info
Suggest Updated Information for this Airport

Location

Latitude / Longitude: 48°16'11"N / 7°50'31"E
  48°16.188'N / 7°50.532'E
  48.2698 / 7.8422
Satellite photo at:
Airport distance calculator
From:
Weather Reports

METAR

LFST
18.2nm NW
LFST 191830Z AUTO VRB02KT CAVOK 08/03 Q1023 NOSIG
LFGA
22.2nm SW
LFGA 191830Z AUTO 24004KT 200V280 CAVOK 07/01 Q1023
EDSB
32.3nm N
EDSB 191820Z 19003KT 9999 SCT049 SCT058 07/03 Q1023

TAF

EDTL
5.8nm NW
TAF EDTL 191700Z 1918/1924 20005KT 9999 SCT040
LFST
18.2nm NW
TAF LFST 191700Z 1918/2018 18004KT CAVOK BECMG 1921/1924 BKN030 PROB40 TEMPO 1923/2009 4000 -DZRA BR TEMPO 2016/2018 -RA
EDSB
32.3nm N
TAF EDSB 191700Z 1918/2018 23006KT 9999 SCT040 BECMG 2006/2009 22012KT TEMPO 2014/2018 21015G25KT RA
Safelog

 

Dauntless Aviation

© 2007-2017 Dauntless Aviation, all rights reserved
Information provided via PilotNav comes from a variety of official and unofficial data sources. As errors are possible, do not use PilotNav for primary flight planning purposes. Verify any information that you receive via PilotNav with current and canonical charts and other official documents. The material in this database is subject to database copyrights held by Dauntless Aviation and may not be copied without the express permission of Dauntless Aviation - licenses for use of part of all of this data are available for purchase; enquire via the Dauntless Aviation helpdesk. A number of mechanisms and markers exist in the database to protect against and identify infringement / copyright. Automated queries against this website are stictly prohibited, and all activity is logged and analyzed.